カタログに戻る

DELTA 1 R/B(1)

運用中LEO
NORAD 10954·ROCKET BODY·🇺🇸 United States

打ち上げ Jun 16, 1978 から Cape Canaveral Space Force Station

Loading…

次のパス (今後24時間)

TLE

最新Source: Space-Track

元期: Sep 14, 2026, 08:36 UTC

1 10954U 78062B   26257.35835709  .00000261  00000-0  46120-4 0  9990
2 10954  28.4260 270.7210 0684770 131.9714 234.1262 13.54265186373543

AllMySatでDELTA 1 R/B(1)をリアルタイム追跡

Download on the App Store